GORIZONT 32 [-]

Last updated on Jan. 16, 2021, 6:28 a.m. UTC

1 23880U 96034A   21015.53930334  .00000038  00000-0  00000-0 0  9993
2 23880  14.4440  10.3363 0011776 336.4724  22.0690  1.00140665 90200
UTC
Height (km)
Latitude
Longitude
Inclination
Orbital Period
UTC large
Height (km)
Speed (km/s)
/
Latitude / Longitude
Inclination (degrees)
Orbital Period (minutes)
Azimuth
Elevation
Range (km)
Doppler Factor
iOS Compass Heading
iOS Angle

Next 30 passes for location: Hong Kong

Rise time Rise Azimuth (degrees) Set time Set Azimuth (degrees) Duration Max altitude (degrees)

No matching passes for this satellites